| time (UTC) | temp F | wind direction | speed knots | gust knots | rain 1hr in | rain 24hr in | rain mn in | humidity % | barometer mb |
| 20260902065112 | 54 | 0.0 | 0.9 | 0.00 | 0.00 | 0.00 | 99 | 1020.0 | |
| 20260902064109 | 54 | 0.0 | 0.0 | 0.00 | 0.00 | 0.00 | 99 | 1020.1 | |
| 20260902063105 | 53 | 0.0 | 0.0 | 0.00 | 0.00 | 0.00 | 99 | 1019.9 | |
| 20260902062102 | 53 | 0.0 | 0.0 | 0.00 | 0.00 | 0.00 | 99 | 1020.0 | |
| 20260902061059 | 52 | 0.0 | 0.0 | 0.00 | 0.00 | 0.00 | 99 | 1020.1 | |
| 20260902060056 | 51 | 0.0 | 0.0 | 0.00 | 0.00 | 0.00 | 99 | 1020.1 | |
| 20260902054050 | 51 | 0.0 | 0.0 | 0.00 | 0.00 | 0.00 | 99 | 1020.2 | |
| 20260902053047 | 50 | 0.0 | 0.0 | 0.00 | 0.00 | 0.00 | 99 | 1020.4 | |
| 20260902052103 | 49 | 0.0 | 0.0 | 0.00 | 0.00 | 0.00 | 99 | 1020.2 | |
| 20260902051040 | 48 | 0.0 | 0.0 | 0.00 | 0.00 | 0.00 | 99 | 1020.2 | |
| 20260902044031 | 47 | 0.0 | 0.0 | 0.00 | 0.00 | 0.00 | 99 | 1020.0 | |
| 20260902043028 | 47 | 0.0 | 0.0 | 0.00 | 0.00 | 0.00 | 99 | 1020.0 | |
| 20260902042024 | 47 | 0.0 | 0.0 | 0.00 | 0.00 | 0.00 | 99 | 1020.0 | |
| 20260902041022 | 46 | 0.0 | 0.0 | 0.00 | 0.00 | 0.00 | 99 | 1020.0 | |
| 20260902040018 | 46 | 0.0 | 0.0 | 0.00 | 0.00 | 0.00 | 99 | 1020.0 | |
| 20260902035015 | 47 | 0.0 | 0.0 | 0.00 | 0.00 | 0.00 | 99 | 1019.9 | |
| 20260902034112 | 47 | 0.0 | 0.0 | 0.00 | 0.01 | 0.00 | 99 | 1020.0 | |
| 20260902032106 | 47 | 0.0 | 0.0 | 0.00 | 0.01 | 0.00 | 99 | 1020.0 | |
| 20260902031102 | 47 | 0.0 | 0.0 | 0.00 | 0.01 | 0.00 | 99 | 1020.0 | |
| 20260902025056 | 47 | 0.0 | 0.0 | 0.00 | 0.01 | 0.00 | 99 | 1019.9 | |
| 20260902024053 | 47 | 0.0 | 0.0 | 0.00 | 0.01 | 0.00 | 99 | 1019.9 | |
| 20260902023050 | 48 | 0.0 | 0.0 | 0.00 | 0.01 | 0.00 | 99 | 1019.8 | |
| 20260902022047 | 48 | 0.0 | 0.0 | 0.00 | 0.01 | 0.00 | 99 | 1019.9 | |
| 20260902021044 | 48 | 0.0 | 0.0 | 0.00 | 0.01 | 0.00 | 99 | 1020.0 | |
| 20260902020041 | 48 | 0.0 | 0.0 | 0.00 | 0.01 | 0.00 | 99 | 1020.1 | |
| 20260902015058 | 49 | 0.0 | 0.0 | 0.00 | 0.01 | 0.00 | 99 | 1020.0 | |
| 20260902014034 | 49 | 0.0 | 0.0 | 0.00 | 0.01 | 0.00 | 99 | 1020.1 | |
| 20260902013031 | 49 | 0.0 | 0.0 | 0.00 | 0.01 | 0.00 | 99 | 1020.0 | |
| 20260902012108 | 49 | 0.0 | 0.0 | 0.00 | 0.01 | 0.00 | 99 | 1020.1 | |
| 20260902011045 | 49 | 0.0 | 0.0 | 0.00 | 0.01 | 0.00 | 99 | 1020.1 | |
| 20260902010022 | 49 | 0.0 | 0.0 | 0.00 | 0.01 | 0.00 | 99 | 1020.2 | |
| 20260902004016 | 50 | 0.0 | 0.0 | 0.00 | 0.01 | 0.00 | 99 | 1020.2 | |
| 20260902003112 | 50 | 0.0 | 0.0 | 0.00 | 0.01 | 0.00 | 99 | 1020.3 | |
| 20260902002130 | 50 | 0.0 | 0.0 | 0.00 | 0.01 | 0.00 | 99 | 1020.3 | |
| 20260902001107 | 50 | 0.0 | 0.0 | 0.00 | 0.01 | 0.00 | 99 | 1020.4 | |
| 20260902000123 | 50 | 0.0 | 0.0 | 0.00 | 0.01 | 0.00 | 99 | 1020.4 | |
| 20260901235100 | 50 | 0.0 | 0.0 | 0.00 | 0.01 | 0.00 | 99 | 1020.4 | |
| 20260901234057 | 51 | 0.0 | 0.0 | 0.00 | 0.01 | 0.00 | 99 | 1020.3 | |
| 20260901233054 | 52 | 0.0 | 0.0 | 0.00 | 0.01 | 0.00 | 99 | 1020.3 | |
| 20260901232050 | 52 | 0.0 | 0.0 | 0.00 | 0.01 | 0.00 | 99 | 1020.1 | |
| 20260901231047 | 53 | 0.0 | 0.0 | 0.00 | 0.01 | 0.00 | 99 | 1020.2 | |
| 20260901225040 | 53 | 0.0 | 0.0 | 0.00 | 0.01 | 0.00 | 99 | 1020.2 | |
| 20260901224037 | 53 | 0.0 | 0.0 | 0.00 | 0.01 | 0.00 | 99 | 1020.2 | |
| 20260901223052 | 53 | 0.0 | 0.0 | 0.00 | 0.01 | 0.00 | 99 | 1020.1 | |
| 20260901220041 | 54 | 0.0 | 1.7 | 0.00 | 0.01 | 0.00 | 99 | 1020.1 | |
| 20260901214035 | 55 | 0.0 | 0.0 | 0.00 | 0.01 | 0.01 | 99 | 1019.9 | |
| 20260901213112 | 54 | 0.0 | 0.0 | 0.00 | 0.01 | 0.01 | 99 | 1020.0 | |
| 20260901212130 | 54 | 0.0 | 0.0 | 0.00 | 0.01 | 0.01 | 99 | 1020.1 | |
| 20260901211106 | 53 | 0.0 | 0.0 | 0.00 | 0.01 | 0.01 | 99 | 1020.0 | |
| 20260901205100 | 53 | 0.0 | 0.0 | 0.00 | 0.07 | 0.01 | 99 | 1019.9 | |
| 20260901204117 | 53 | 0.0 | 0.0 | 0.00 | 0.14 | 0.01 | 99 | 1019.9 | |
| 20260901203055 | 54 | 0.0 | 0.0 | 0.00 | 0.26 | 0.01 | 99 | 1019.9 | |
| 20260901202110 | 54 | 0.0 | 0.0 | 0.00 | 0.50 | 0.01 | 98 | 1019.8 | |
| 20260901201049 | 54 | 0.0 | 0.0 | 0.00 | 0.58 | 0.01 | 98 | 1019.8 | |
| 20260901200104 | 55 | 0.0 | 0.0 | 0.00 | 0.58 | 0.01 | 98 | 1019.7 | |
| 20260901194039 | 56 | 0.0 | 0.0 | 0.00 | 0.58 | 0.01 | 97 | 1019.6 | |
| 20260901193034 | 56 | 0.0 | 0.0 | 0.00 | 0.58 | 0.01 | 97 | 1019.5 | |
| 20260901192051 | 56 | 0.0 | 0.0 | 0.00 | 0.58 | 0.01 | 96 | 1019.5 | |
| 20260901191028 | 57 | 0.0 | 0.0 | 0.00 | 0.58 | 0.01 | 95 | 1019.4 | |
| 20260901190024 | 58 | 0.0 | 0.0 | 0.00 | 0.58 | 0.01 | 94 | 1019.4 | |
| 20260901184019 | 60 | 0.0 | 0.0 | 0.00 | 0.58 | 0.01 | 91 | 1019.3 | |
| 20260901183015 | 60 | 0.0 | 0.0 | 0.00 | 0.59 | 0.01 | 89 | 1019.1 | |
| 20260901182112 | 60 | 0.0 | 0.0 | 0.00 | 0.60 | 0.01 | 89 | 1019.1 | |
| 20260901181109 | 60 | 0.0 | 0.0 | 0.00 | 0.60 | 0.01 | 90 | 1019.0 | |
| 20260901180126 | 61 | 0.0 | 0.0 | 0.00 | 0.60 | 0.01 | 89 | 1018.9 | |
| 20260901175103 | 63 | 0.0 | 0.0 | 0.00 | 0.60 | 0.01 | 87 | 1018.8 | |
| 20260901174059 | 65 | 0.0 | 0.0 | 0.00 | 0.60 | 0.01 | 83 | 1018.9 | |
| 20260901173058 | 67 | 0.0 | 0.0 | 0.00 | 0.60 | 0.01 | 79 | 1018.7 | |
| 20260901172113 | 68 | 258 | 0.9 | 6.1 | 0.00 | 0.60 | 0.01 | 72 | 1018.6 |
| 20260901171050 | 70 | 0.0 | 1.7 | 0.00 | 0.60 | 0.01 | 72 | 1018.7 | |
| 20260901170047 | 71 | 180 | 0.9 | 3.5 | 0.00 | 0.60 | 0.01 | 69 | 1018.8 |
| 20260901165105 | 71 | 185 | 0.9 | 1.7 | 0.00 | 0.60 | 0.01 | 67 | 1018.7 |
| 20260901164041 | 72 | 270 | 0.0 | 2.6 | 0.00 | 0.60 | 0.01 | 65 | 1018.7 |
| 20260901163037 | 72 | 180 | 0.9 | 4.3 | 0.00 | 0.60 | 0.01 | 63 | 1018.8 |
| 20260901162034 | 73 | 0.0 | 1.7 | 0.00 | 0.60 | 0.01 | 64 | 1018.9 | |
| 20260901160028 | 73 | 243 | 1.7 | 7.0 | 0.00 | 0.60 | 0.01 | 62 | 1019.0 |
| 20260901155025 | 73 | 198 | 0.0 | 3.5 | 0.00 | 0.60 | 0.01 | 61 | 1018.9 |
| 20260901154042 | 73 | 180 | 0.0 | 1.7 | 0.00 | 0.60 | 0.01 | 63 | 1019.1 |
| 20260901153019 | 74 | 180 | 0.0 | 1.7 | 0.00 | 0.60 | 0.01 | 60 | 1019.0 |
| 20260901152015 | 74 | 212 | 0.0 | 3.5 | 0.00 | 0.60 | 0.01 | 57 | 1019.0 |
| 20260901150109 | 73 | 236 | 2.6 | 7.0 | 0.00 | 0.60 | 0.01 | 59 | 1018.9 |
| 20260901145106 | 74 | 215 | 1.7 | 4.3 | 0.00 | 0.60 | 0.01 | 62 | 1019.0 |
| 20260901144103 | 75 | 204 | 0.9 | 3.5 | 0.00 | 0.60 | 0.01 | 59 | 1019.1 |
| 20260901143120 | 75 | 293 | 0.9 | 6.1 | 0.00 | 0.60 | 0.01 | 58 | 1019.1 |
| 20260901141053 | 74 | 217 | 1.7 | 7.0 | 0.00 | 0.60 | 0.01 | 61 | 1019.3 |
| 20260901140050 | 75 | 249 | 1.7 | 5.2 | 0.00 | 0.60 | 0.01 | 59 | 1019.4 |
| 20260901135047 | 74 | 225 | 0.9 | 4.3 | 0.00 | 0.60 | 0.01 | 58 | 1019.3 |
| 20260901134044 | 74 | 253 | 1.7 | 4.3 | 0.00 | 0.60 | 0.01 | 61 | 1019.4 |
| 20260901133040 | 75 | 204 | 1.7 | 8.7 | 0.00 | 0.60 | 0.01 | 60 | 1019.4 |
| 20260901132037 | 75 | 187 | 1.7 | 9.6 | 0.00 | 0.60 | 0.01 | 59 | 1019.4 |
| 20260901130031 | 74 | 221 | 0.9 | 4.3 | 0.00 | 0.60 | 0.01 | 63 | 1019.6 |
| 20260901125028 | 73 | 187 | 1.7 | 5.2 | 0.00 | 0.60 | 0.01 | 64 | 1019.5 |
| 20260901124045 | 73 | 184 | 1.7 | 6.1 | 0.00 | 0.60 | 0.01 | 65 | 1019.7 |
| 20260901122019 | 73 | 210 | 1.7 | 7.0 | 0.00 | 0.60 | 0.01 | 67 | 1019.8 |
| 20260901121017 | 72 | 237 | 1.7 | 5.2 | 0.00 | 0.60 | 0.01 | 69 | 1019.8 |
| 20260901120112 | 72 | 203 | 0.9 | 4.3 | 0.00 | 0.60 | 0.01 | 69 | 1019.8 |
| 20260901115108 | 70 | 213 | 0.9 | 2.6 | 0.00 | 0.60 | 0.01 | 70 | 1019.9 |
| 20260901113102 | 69 | 225 | 1.7 | 3.5 | 0.00 | 0.60 | 0.01 | 73 | 1019.9 |
| 20260901111056 | 68 | 270 | 0.9 | 4.3 | 0.00 | 0.60 | 0.01 | 78 | 1020.0 |
| 20260901105049 | 70 | 320 | 1.7 | 7.0 | 0.00 | 0.60 | 0.01 | 74 | 1020.0 |
| 20260901102040 | 69 | 308 | 1.7 | 5.2 | 0.00 | 0.60 | 0.01 | 80 | 1020.1 |
| 20260901101037 | 68 | 196 | 1.7 | 6.1 | 0.00 | 0.60 | 0.01 | 79 | 1020.1 |
| 20260901095031 | 67 | 218 | 0.9 | 3.5 | 0.00 | 0.60 | 0.01 | 84 | 1020.2 |
| 20260901094028 | 66 | 249 | 1.7 | 7.0 | 0.00 | 0.60 | 0.01 | 83 | 1020.1 |
| 20260901093025 | 66 | 233 | 2.6 | 9.6 | 0.00 | 0.60 | 0.01 | 86 | 1020.2 |
| 20260901092041 | 66 | 312 | 0.9 | 3.5 | 0.00 | 0.60 | 0.01 | 86 | 1020.1 |
| 20260901091018 | 65 | 220 | 1.7 | 10.4 | 0.00 | 0.60 | 0.01 | 87 | 1020.1 |
| 20260901090035 | 65 | 217 | 1.7 | 5.2 | 0.00 | 0.60 | 0.01 | 88 | 1020.1 |
| 20260901085112 | 64 | 240 | 1.7 | 3.5 | 0.00 | 0.60 | 0.01 | 91 | 1020.1 |
| 20260901084109 | 63 | 196 | 1.7 | 7.0 | 0.00 | 0.60 | 0.01 | 91 | 1020.1 |
| 20260901083105 | 63 | 177 | 0.9 | 3.5 | 0.00 | 0.60 | 0.01 | 93 | 1020.2 |
| 20260901082144 | 62 | 290 | 0.9 | 4.3 | 0.00 | 0.60 | 0.01 | 94 | 1020.2 |
| 20260901081059 | 62 | 215 | 0.9 | 6.1 | 0.00 | 0.60 | 0.01 | 94 | 1020.2 |
| 20260901080056 | 61 | 289 | 0.9 | 4.3 | 0.00 | 0.60 | 0.01 | 95 | 1020.1 |
| 20260901074049 | 60 | 0.0 | 0.0 | 0.00 | 0.60 | 0.01 | 98 | 1019.8 | |
| 20260901073046 | 60 | 0.0 | 0.0 | 0.00 | 0.60 | 0.01 | 99 | 1019.8 | |
| 20260901072043 | 59 | 0.0 | 1.7 | 0.00 | 0.60 | 0.01 | 99 | 1019.8 | |
| 20260901071040 | 59 | 0.0 | 0.0 | 0.00 | 0.60 | 0.01 | 99 | 1019.8 | |
| 20260901070037 | 59 | 0.0 | 0.0 | 0.00 | 0.60 | 0.01 | 99 | 1019.8 |